Location: Kapla
(46.2483°N, 15.0094°E)
Time: 07:09:48
(UTC+00:00)

Cosmos 2084 Rocket - Pass Details

Date: 03 March 2021
Orbit: 527 x 653 km, 62.8° (Epoch: 18 April)

Event Time Altitude Azimuth Distance (km) Brightness Sun altitude
Rises 18:24:38 0° 315° (NW) 2,814 7.8 -17.3°
Reaches altitude 10° 18:26:54 10° 309° (NW) 1,932 7.0 -17.7°
Maximum altitude 18:31:04 45° 237° (WSW) 831 4.5 -18.4°
Enters shadow 18:34:52 13° 167° (SSE) 1,798 5.7 -19.0°
